Wind_Speed
28 26 25 25 24 22 20 19 18 17 17 15 14 14 13 12 11 9 9 8 8 9 9 9 8 8 9 9 9 8 8 7 6 7 7 7 8 9 9 9 9 10 10 10 11 11 12 13 13 13 13 13 14 15 16 15 15 14 14 14 13 13 12 12 12 12 12 12 13 14 16 17 18 20 20 21 22 24 25 26 27 28 28 28 27
28 27 26 26 25 23 21 20 20 19 18 16 15 15 14 13 12 10 9 9 9 9 9 9 8 8 8 10 10 9 9 8 7 8 7 7 7 8 9 9 9 10 11 11 11 12 12 13 14 14 13 14 14 15 15 15 15 14 14 14 14 13 12 12 12 12 12 12 13 15 16 18 19 20 21 22 24 25 26 27 27 27 28 27 27
29 28 27 27 26 24 22 21 21 20 19 17 16 16 15 14 12 11 10 9 9 9 10 9 8 8 8 9 10 10 10 9 8 8 7 7 7 7 8 9 9 10 11 11 12 12 13 14 14 15 15 14 14 14 15 15 14 14 14 14 14 13 13 12 12 13 13 13 14 15 17 18 19 21 22 24 25 26 26 26 27 27 27 27 26
30 29 28 27 26 25 23 22 21 21 20 19 17 17 16 15 13 12 11 10 9 10 10 9 9 8 8 9 10 11 11 10 9 8 7 7 7 7 7 8 9 10 11 12 12 13 13 14 15 15 15 15 15 15 15 15 15 14 14 14 14 13 13 12 12 13 14 14 15 16 17 19 20 22 23 24 25 26 26 26 27 27 27 27 27
31 30 29 28 27 26 25 23 22 22 21 20 18 18 17 16 14 13 12 11 10 10 10 10 9 9 8 8 9 10 12 11 10 10 8 7 7 7 7 7 9 11 12 12 13 13 13 14 15 15 16 16 16 16 15 15 15 15 14 14 14 13 13 12 13 13 13 14 15 16 18 19 21 22 23 24 25 26 26 27 27 27 28 28 28
33 31 30 29 28 27 26 24 22 22 22 20 19 18 18 17 15 14 13 12 12 11 11 11 10 10 9 8 9 10 11 12 11 11 9 8 7 7 7 8 9 10 12 13 13 13 14 14 15 15 16 17 17 16 16 16 16 15 15 15 14 13 13 13 13 13 13 14 15 16 18 19 21 22 23 24 25 26 26 27 27 28 28 29 29
34 33 32 30 29 28 27 25 24 23 22 21 20 19 19 18 17 16 14 14 14 13 12 12 11 11 10 9 8 9 10 12 11 11 10 9 7 7 7 8 10 10 11 13 14 14 14 15 15 16 16 17 17 17 17 17 16 16 16 15 15 14 13 13 14 14 14 14 15 16 18 19 21 22 23 24 25 26 26 27 28 28 29 29 28
35 34 33 32 30 29 28 26 25 24 23 21 20 19 19 19 18 17 15 15 15 14 13 13 12 11 11 10 9 9 9 10 11 10 10 9 8 7 6 7 10 11 11 13 14 14 15 15 16 16 16 16 17 17 17 17 17 16 16 16 15 14 13 14 14 15 15 15 15 17 18 20 21 22 23 24 25 26 26 27 28 28 29 29 28
36 35 34 33 32 30 29 27 26 25 24 22 21 20 20 20 19 18 16 16 15 15 15 15 14 13 12 11 10 10 9 9 10 9 9 10 9 8 6 5 8 11 12 13 14 14 14 15 15 15 15 15 16 16 17 17 17 17 16 16 15 14 14 14 14 15 15 15 16 17 19 20 21 22 23 24 25 26 27 27 28 28 29 29 28
37 36 35 34 32 31 29 28 28 26 24 22 21 21 21 21 20 19 18 17 16 16 16 16 15 14 13 12 12 11 9 8 9 9 9 9 9 8 8 7 7 9 12 13 14 15 14 14 15 15 14 14 15 15 16 16 17 16 16 15 15 15 15 15 15 15 16 16 17 18 20 21 22 23 23 24 25 26 27 28 28 29 29 29 27
38 37 36 35 33 31 30 29 28 27 25 24 23 23 23 23 22 20 19 18 18 18 18 17 16 15 14 13 13 12 11 9 8 9 10 10 9 9 9 8 7 8 10 12 14 16 17 16 15 15 14 14 14 15 16 17 17 16 16 15 15 15 15 15 15 16 16 17 18 19 20 21 22 23 24 25 26 27 28 28 29 29 29 29 27
39 37 36 35 34 32 31 30 29 28 26 26 25 25 25 24 24 22 21 20 19 19 19 18 17 16 16 14 14 13 12 10 9 9 10 10 9 8 9 9 9 9 10 11 12 14 17 17 16 15 15 14 14 15 16 17 17 17 16 15 15 15 16 16 16 17 17 18 18 19 21 22 23 23 24 25 26 27 27 28 29 30 30 29 27
39 38 37 36 36 34 32 31 29 28 28 28 27 27 26 26 25 23 22 21 20 20 19 19 18 18 17 16 15 15 13 12 11 10 10 10 10 9 9 9 10 10 10 11 12 12 15 17 16 15 15 14 14 14 15 16 17 17 16 15 15 16 16 17 18 18 18 18 19 20 21 22 23 24 24 25 26 26 27 28 29 29 29 29 29
41 39 38 38 37 36 34 32 31 30 30 30 29 28 28 27 26 24 24 23 22 21 20 20 19 19 18 17 17 16 15 14 12 11 11 11 10 10 9 9 10 10 11 12 12 12 13 15 16 16 15 15 14 13 14 15 16 16 16 15 15 16 17 17 18 18 19 19 19 20 21 22 23 24 24 25 25 26 27 28 28 28 29 29 29
43 41 39 39 38 36 35 33 32 31 31 31 30 29 29 28 27 26 25 25 24 23 22 21 20 20 20 19 18 17 16 16 14 12 12 11 11 10 10 10 10 10 11 12 13 13 13 14 14 15 15 15 15 15 14 14 15 15 16 15 15 16 16 17 18 18 19 19 20 21 21 22 23 24 24 25 25 26 27 28 28 28 28 29 29
46 43 40 39 39 37 36 34 33 32 32 31 31 30 29 29 29 28 26 26 25 25 24 22 22 21 21 20 19 18 18 17 15 14 14 12 12 11 11 11 11 11 12 13 13 14 15 14 13 14 15 14 14 15 16 15 15 15 16 16 16 16 16 17 18 19 19 20 21 21 22 22 23 24 24 25 26 27 27 27 27 27 28 28 29
47 45 42 40 41 40 37 35 34 33 33 32 32 31 30 30 30 29 28 27 27 27 26 25 24 23 22 21 20 20 19 18 17 16 15 14 13 12 11 12 12 11 12 13 14 14 16 15 13 13 14 14 13 13 15 15 15 15 15 16 16 16 16 17 18 19 20 21 21 22 22 23 24 24 25 25 26 27 27 28 27 27 27 28 29
48 46 44 42 41 42 40 37 35 34 34 33 33 32 31 31 31 30 30 29 29 28 27 27 26 24 23 23 22 21 20 18 17 17 17 15 14 13 12 12 12 11 12 13 14 15 16 16 14 13 13 14 14 13 13 14 15 15 15 16 17 17 17 17 18 19 20 21 21 22 23 23 24 25 25 26 27 28 28 28 28 27 27 28 29
50 47 46 44 42 43 41 38 36 35 35 34 33 33 32 31 31 30 31 31 31 30 29 29 27 25 25 24 23 23 21 20 18 18 18 17 15 14 13 12 12 12 12 12 13 14 16 16 15 14 14 14 14 15 14 12 13 14 15 16 16 17 18 18 18 19 20 21 22 22 23 24 25 25 26 27 28 29 29 29 29 29 28 29 30
50 49 47 46 44 44 42 38 35 35 35 34 33 33 32 31 30 31 31 32 33 32 31 30 28 27 26 25 25 24 22 21 19 18 19 18 16 15 14 13 13 14 13 14 14 14 15 15 15 14 14 15 15 15 15 14 12 13 15 15 16 17 18 18 18 19 20 21 22 23 24 25 25 26 26 27 28 29 29 30 30 30 30 30 31
51 51 49 46 45 45 42 39 36 35 35 35 34 34 33 32 32 32 32 33 34 34 32 30 29 28 27 26 26 25 24 22 20 19 20 19 18 16 15 14 14 14 15 16 15 14 14 15 15 15 14 15 15 15 15 15 14 13 14 15 16 16 17 17 18 18 19 21 22 24 25 26 26 27 27 28 29 29 30 30 30 30 30 30 30
52 51 50 46 46 46 43 40 37 36 36 35 34 34 33 33 33 33 33 35 35 35 33 32 30 30 28 28 27 27 26 24 21 20 20 20 19 18 18 17 16 16 16 17 16 14 14 15 16 16 15 15 16 16 15 15 15 14 14 15 16 16 17 17 17 18 19 21 22 24 25 26 27 28 28 29 29 30 30 31 31 31 31 30 31
51 50 49 46 46 46 43 41 39 36 35 34 34 34 33 34 34 34 35 36 36 36 35 33 32 31 30 29 29 28 27 25 23 22 22 22 21 20 19 19 19 17 17 17 17 16 15 16 16 16 16 16 16 16 16 15 15 14 14 15 15 16 16 17 17 18 19 20 22 23 25 26 27 28 28 29 30 30 30 31 31 31 31 31 31
51 50 47 46 46 45 44 43 39 36 35 34 34 34 34 34 35 35 36 37 37 37 36 34 33 32 31 31 31 29 28 27 26 24 23 23 23 22 20 20 20 19 18 18 18 18 17 16 16 16 16 17 16 17 17 16 15 15 14 15 16 16 16 17 18 18 19 20 22 23 24 25 27 28 29 29 30 30 30 31 31 32 32 32 32
53 51 47 46 47 46 45 44 40 37 36 35 35 36 36 36 36 36 37 39 39 37 36 36 36 35 34 33 32 31 29 28 27 26 25 25 24 23 21 21 21 20 19 18 18 19 19 17 16 16 17 17 17 17 17 16 16 16 16 16 17 17 17 17 18 19 20 21 22 23 24 25 27 28 29 30 30 30 30 30 31 32 33 33 33
53 49 47 47 47 47 47 46 42 39 37 37 37 37 37 36 37 37 38 40 40 38 37 37 38 37 36 35 33 32 31 30 29 28 27 26 26 25 23 22 22 22 21 21 21 21 21 19 18 17 17 18 17 18 18 17 17 18 18 18 18 18 17 18 19 19 20 21 22 23 24 25 26 28 29 30 30 30 29 30 31 32 33 34 34
54 49 47 48 48 48 48 47 44 41 39 39 38 38 38 37 38 38 38 40 40 39 38 38 39 39 38 36 35 34 33 31 31 30 29 27 27 26 25 24 24 24 24 24 23 23 22 21 20 18 17 17 17 18 19 18 18 19 19 18 19 19 19 19 19 20 21 21 22 23 24 25 26 27 28 29 29 30 29 30 31 32 33 34 35
51 50 47 48 50 49 50 49 46 43 41 41 41 41 40 39 39 39 38 39 40 39 39 39 40 40 39 38 37 36 34 33 33 32 31 29 28 27 27 27 26 26 26 25 25 24 22 21 20 19 18 18 17 18 19 19 19 19 20 19 19 20 20 20 20 20 21 22 22 23 24 25 26 27 28 29 29 30 30 30 31 32 33 35 35
45 48 48 49 51 51 51 51 49 45 44 44 44 44 43 40 39 39 39 39 38 39 39 39 40 41 40 39 37 36 36 35 35 35 33 31 30 30 29 29 29 28 28 27 26 25 22 20 19 19 19 18 18 18 20 20 20 20 20 20 20 20 20 20 20 20 20 21 22 23 23 24 25 26 27 28 29 30 31 31 31 32 33 34 35
44 45 47 50 54 55 54 54 52 49 48 48 47 46 44 42 40 41 41 40 38 38 39 40 40 41 40 39 38 36 36 36 36 36 35 33 32 32 31 31 30 29 28 27 26 24 22 19 19 19 19 18 18 19 20 21 21 21 20 20 20 20 20 20 20 20 20 21 22 22 23 24 25 26 27 28 30 31 32 32 32 32 33 34 34
46 46 49 53 58 59 58 58 56 53 52 51 49 47 46 44 43 43 43 42 40 39 40 40 41 42 41 40 39 37 36 37 37 36 35 34 33 32 32 31 30 28 27 25 24 23 20 19 19 19 19 18 18 19 20 20 21 20 20 20 20 19 20 20 20 20 21 21 22 22 23 23 24 26 27 28 30 31 33 33 33 32 32 33 34
49 48 49 54 60 62 62 62 60 57 55 53 50 49 47 46 45 45 45 44 43 41 41 41 42 42 42 41 39 38 37 37 37 36 35 34 33 32 31 30 29 27 24 23 22 21 19 18 19 19 18 18 18 19 20 20 20 20 19 19 19 18 18 19 20 21 21 22 22 22 22 23 24 25 27 28 29 31 32 32 32 32 32 33 33
49 48 46 49 59 64 64 63 61 58 57 55 53 51 49 48 47 46 46 46 45 43 42 42 43 43 42 41 40 39 38 38 38 36 35 34 32 30 29 28 27 26 24 23 22 20 18 17 17 18 18 18 18 18 19 20 19 19 19 19 19 18 17 17 19 21 22 22 22 22 22 23 24 25 26 27 28 30 31 32 33 33 33 33 33
48 48 45 43 50 59 61 60 59 58 58 57 55 52 50 50 49 48 47 46 45 44 43 43 44 43 42 41 41 39 39 38 38 36 35 34 31 29 28 27 26 26 25 23 22 21 20 18 17 18 19 19 18 18 18 19 19 19 19 19 19 19 18 17 17 18 20 22 24 23 23 24 24 24 25 26 26 28 29 31 33 33 33 33 34
50 49 47 42 45 53 57 58 57 56 58 58 56 54 53 52 51 50 48 47 45 44 44 44 44 44 43 42 41 40 40 39 38 37 35 34 31 29 28 28 27 26 25 24 22 22 21 21 20 20 20 20 20 20 20 20 20 19 18 19 20 19 18 17 17 16 16 18 22 23 24 25 25 24 24 24 25 26 28 31 33 34 34 34 35
54 52 51 47 46 52 56 57 57 56 57 58 57 56 55 53 52 52 51 49 48 46 44 45 45 45 45 43 42 42 41 40 39 37 36 34 32 30 30 29 28 26 26 25 23 22 21 22 23 23 22 21 22 22 21 21 21 21 20 19 20 20 19 18 18 18 17 18 19 21 23 25 26 25 24 23 24 25 27 30 32 35 36 36 37
56 54 56 52 48 51 54 55 54 53 53 56 57 55 55 55 53 53 54 52 51 48 46 46 46 46 46 45 44 44 43 42 40 38 36 35 34 32 31 30 28 27 26 26 25 24 22 22 24 25 24 23 24 24 24 23 22 22 21 20 20 21 21 20 20 19 19 20 21 21 22 24 26 26 24 23 24 26 27 30 32 35 37 38 38
61 54 55 54 50 49 51 50 49 48 49 53 57 55 55 57 57 56 57 56 53 51 49 48 47 46 47 47 46 46 45 43 40 39 38 37 36 34 32 30 29 28 27 26 26 25 24 24 24 25 26 27 27 27 27 26 25 24 24 23 21 22 23 23 22 21 21 22 23 24 23 23 25 26 27 26 26 28 29 30 32 35 37 38 38
66 58 54 55 53 50 49 48 46 46 45 49 56 58 55 57 61 61 59 59 56 53 51 50 48 47 47 48 48 47 47 45 42 41 40 39 37 36 34 32 30 29 27 26 26 25 25 26 25 24 25 27 29 29 30 29 28 27 27 26 24 23 25 25 25 25 24 24 25 26 25 24 24 26 28 28 29 30 31 32 33 36 38 38 38
65 61 56 55 55 54 53 51 48 46 43 43 50 57 56 56 62 64 62 60 58 55 53 52 50 48 47 47 47 47 48 47 45 44 43 41 39 37 36 35 33 31 29 28 27 26 26 26 25 23 24 26 28 30 32 32 31 31 31 30 27 25 26 27 27 28 27 26 26 27 27 27 27 27 28 29 31 33 34 35 35 36 39 40 40
64 62 58 56 57 58 56 54 52 50 47 44 44 51 54 54 59 64 62 60 59 57 55 54 52 50 47 47 47 48 49 49 49 48 46 44 42 39 38 37 36 34 32 30 29 27 27 27 26 24 23 23 25 29 32 33 33 33 34 34 32 30 29 29 29 30 31 30 29 29 29 30 30 31 31 31 33 35 37 38 38 37 39 42 44
65 63 61 57 57 59 58 56 55 52 52 51 49 51 53 53 56 61 62 60 59 60 59 57 55 52 50 48 46 46 49 51 52 51 49 46 44 42 40 39 39 38 35 33 31 29 28 28 28 27 24 22 23 28 31 32 34 34 35 36 36 35 34 33 32 32 33 34 33 32 33 33 33 34 34 34 35 36 39 41 41 40 40 43 46
63 63 63 60 58 58 59 59 58 54 52 54 55 55 55 54 54 57 59 61 61 62 63 61 58 55 52 50 49 47 47 50 52 52 49 47 45 44 42 41 42 41 38 36 34 32 31 30 30 30 28 26 28 30 31 32 34 35 35 36 37 38 38 37 35 34 36 38 37 36 36 37 36 36 36 37 38 38 38 41 43 42 40 42 45
62 63 63 61 60 61 62 59 59 58 56 55 57 57 57 56 55 53 53 55 59 62 62 62 61 59 56 54 53 50 46 47 51 50 47 46 45 44 44 44 44 44 42 40 36 35 34 32 31 30 30 31 33 35 35 35 36 37 37 36 37 38 39 39 38 37 38 40 40 38 37 38 39 38 37 38 40 40 39 40 42 43 42 42 44
59 61 64 62 58 59 62 61 57 58 60 58 57 58 57 56 54 50 47 48 52 58 62 64 64 63 60 57 56 53 48 47 50 48 44 44 44 44 45 46 46 46 45 43 40 38 36 34 32 29 28 32 35 36 36 38 38 38 38 38 38 38 38 38 39 39 40 42 42 41 39 38 41 41 40 40 42 42 41 40 40 42 43 43 43
63 60 64 67 62 57 59 60 56 55 58 59 58 57 55 54 51 48 47 48 48 51 57 62 64 64 63 60 58 55 50 49 51 50 47 46 45 46 48 48 48 47 46 45 44 41 39 37 35 32 31 33 35 36 37 39 39 39 39 40 40 39 38 37 38 39 40 42 43 44 42 41 43 44 41 41 44 43 42 40 38 40 42 43 43
69 65 65 69 68 63 60 58 56 56 57 58 58 58 55 53 53 53 53 52 51 50 52 56 60 63 65 63 62 60 55 53 56 56 55 53 51 51 52 51 50 49 49 48 46 44 42 39 37 37 36 36 36 37 38 39 39 39 40 41 41 40 40 38 38 39 41 42 43 44 44 43 45 46 43 41 43 43 42 41 39 39 41 42 42
69 68 68 68 66 65 65 60 55 54 56 55 56 58 57 53 52 54 56 56 55 54 53 54 56 59 62 63 63 64 64 62 63 63 61 58 56 56 55 53 51 50 50 50 47 46 45 42 39 39 40 39 39 40 39 39 39 39 41 42 41 42 43 42 41 42 43 43 43 44 44 43 44 46 44 41 42 42 42 43 42 41 41 40 41
68 65 68 71 67 65 69 70 62 54 53 54 53 54 54 53 53 53 54 56 57 55 52 52 54 56 57 58 60 63 67 68 69 68 63 59 58 58 57 54 52 53 52 51 49 48 47 46 43 42 42 42 42 43 42 40 37 38 42 43 41 43 45 45 43 44 45 45 43 44 45 42 42 46 45 42 42 41 41 44 44 43 42 40 41
64 60 60 66 69 68 69 73 70 62 57 57 55 50 49 52 57 57 53 51 52 52 51 50 52 56 57 56 56 58 60 64 68 70 66 62 60 59 56 54 54 55 54 52 50 50 51 50 48 47 45 44 45 45 44 40 37 37 41 41 41 44 46 45 44 44 46 44 42 44 46 42 42 45 45 44 43 41 41 44 45 43 43 42 44
63 61 54 52 59 67 71 74 74 69 65 64 62 57 51 49 52 55 54 51 48 50 51 50 51 54 56 54 53 53 55 59 65 69 69 65 62 59 57 57 58 56 54 53 53 53 54 54 53 52 49 47 47 46 43 40 38 38 39 41 42 45 46 44 44 45 45 43 41 45 47 44 43 45 45 46 46 43 41 43 44 44 43 44 45
Wind_Direction
227 227 228 228 227 226 225 225 228 230 229 225 219 219 221 222 228 240 256 271 284 292 297 297 295 289 284 281 279 278 282 291 297 298 304 318 325 323 329 337 338 335 332 333 336 339 337 334 332 330 330 329 329 328 326 325 321 319 318 319 322 325 328 328 326 324 325 328 331 334 335 336 337 337 336 335 333 332 332 332 333 334 334 333 332
229 229 230 231 230 227 226 225 226 228 228 226 221 219 221 224 228 238 252 266 278 287 294 297 294 287 284 282 282 281 281 286 289 291 300 315 318 318 327 334 334 332 329 331 335 338 337 333 331 331 332 332 331 329 326 323 320 317 317 318 321 324 327 327 325 323 325 329 332 334 335 336 336 336 335 333 333 333 334 334 335 335 335 334 333
229 231 232 233 232 229 226 225 225 225 226 226 222 220 220 224 229 237 249 261 273 282 289 294 291 285 282 281 282 281 278 280 284 287 293 307 311 313 325 330 331 331 329 332 337 339 338 335 333 332 334 334 333 331 327 324 320 317 316 317 319 322 325 326 325 324 326 330 333 334 335 335 335 335 335 334 335 336 336 336 336 336 335 334 334
229 230 231 233 233 231 227 226 225 225 225 224 222 221 220 223 229 237 247 257 266 276 284 288 287 281 279 279 278 277 277 277 282 288 290 301 310 314 323 326 329 330 330 334 338 340 339 336 333 333 334 334 333 332 330 327 322 318 315 315 318 321 323 324 325 326 329 332 333 334 334 334 335 336 336 336 337 337 337 336 335 334 334 333 332
229 229 229 231 232 231 228 226 226 226 225 224 222 221 220 223 229 237 246 254 261 268 277 282 281 278 276 275 273 272 275 277 281 288 291 299 311 315 321 323 326 329 332 335 337 340 340 337 334 333 334 335 335 335 333 331 325 319 316 315 318 321 323 324 326 329 331 333 334 335 334 335 336 337 337 337 337 337 337 335 334 333 332 331 330
227 227 227 229 230 230 228 226 226 227 227 226 224 223 222 224 229 236 244 252 258 262 269 276 275 272 274 273 270 268 270 275 281 288 294 302 309 314 319 320 323 327 332 336 336 338 340 339 338 336 337 337 337 337 336 334 328 321 316 316 318 322 325 326 328 331 334 335 336 335 334 336 337 337 337 337 338 337 336 336 335 334 333 332 331
226 225 225 226 228 230 228 226 226 227 228 228 227 226 226 227 231 237 243 250 256 258 263 269 270 268 268 270 268 266 266 272 281 289 295 302 305 307 315 317 318 325 330 333 336 338 340 340 339 339 339 338 338 339 339 337 331 324 317 316 320 325 328 328 330 333 336 338 337 335 334 336 336 337 338 338 338 337 337 337 337 337 336 335 333
226 225 225 225 226 228 228 227 226 227 227 228 229 229 230 233 235 238 243 249 253 256 259 263 266 265 263 264 264 263 264 270 277 284 290 297 302 304 312 315 314 321 325 328 335 339 340 339 339 339 339 339 339 340 340 338 333 325 319 318 321 326 329 330 331 334 337 338 336 334 334 335 336 337 338 338 337 336 337 339 340 340 340 338 336
227 225 225 225 225 226 228 229 228 227 227 228 230 232 235 238 240 242 245 249 253 255 258 259 261 262 261 261 261 263 262 265 271 277 283 289 296 304 313 315 311 317 322 325 331 336 338 339 338 338 338 338 339 339 340 338 334 328 321 320 323 327 330 331 333 335 337 337 335 334 334 335 336 337 337 337 336 336 338 341 342 342 341 340 338
229 227 227 226 225 226 227 229 230 229 228 227 229 233 238 242 244 246 249 251 254 256 257 259 260 259 259 258 259 263 263 263 268 273 276 281 292 304 311 312 312 315 319 324 329 332 336 339 337 337 338 338 339 339 339 338 336 330 325 325 327 330 331 332 334 335 336 336 334 333 334 334 335 335 336 336 336 337 339 341 341 341 341 340 340
230 228 228 228 226 226 227 228 230 230 230 229 229 233 238 243 247 249 252 254 255 257 259 260 261 260 258 257 258 263 265 265 266 269 272 278 288 300 303 306 311 312 315 321 327 330 334 338 338 337 339 339 339 340 339 339 337 334 331 330 332 332 332 333 334 335 336 335 334 333 333 333 333 334 335 335 336 338 340 340 340 341 341 340 340
229 229 229 229 228 227 227 228 229 230 231 232 232 234 238 244 248 251 253 255 256 257 259 260 261 261 259 258 258 261 268 270 266 266 271 276 282 288 293 299 305 309 312 319 325 327 329 335 338 338 339 340 340 340 339 339 338 337 335 334 334 333 333 333 335 336 336 335 333 333 332 332 333 334 334 335 336 338 339 340 340 341 341 341 340
229 228 229 230 230 228 228 229 229 230 232 234 235 236 240 243 247 251 253 255 256 257 258 259 260 261 260 258 258 260 266 270 270 268 270 275 277 278 284 292 301 308 313 318 324 326 327 331 335 336 338 338 339 339 338 338 338 337 336 335 334 334 334 334 335 335 335 334 333 332 332 332 332 332 333 335 337 338 339 339 340 341 341 341 340
229 227 228 229 230 231 230 230 230 230 231 234 237 239 241 243 246 249 252 254 256 257 257 257 258 259 259 258 257 260 265 267 270 271 271 273 274 275 280 288 297 305 311 316 320 324 327 331 334 335 335 335 335 335 335 336 337 336 334 333 333 333 334 334 334 333 333 333 333 332 332 331 331 331 332 335 337 338 339 340 341 342 343 342 341
230 228 228 229 231 232 233 232 232 232 233 235 238 240 242 245 246 248 251 254 256 257 257 255 256 257 258 257 257 259 264 266 269 271 271 271 271 273 277 283 292 301 309 314 316 321 327 329 332 332 332 332 331 331 332 334 335 335 333 332 332 332 333 333 332 332 332 332 332 332 331 330 329 330 332 335 337 338 338 340 342 343 344 344 343
231 230 230 231 231 231 231 232 233 234 236 237 238 240 243 245 247 247 249 252 254 256 257 256 255 256 257 257 257 259 262 266 270 271 270 270 270 272 276 282 289 297 305 312 314 319 324 327 330 330 328 329 328 326 327 331 334 333 332 331 330 331 332 332 332 332 331 331 331 330 329 329 328 329 332 335 336 337 338 339 342 344 346 347 347
232 234 233 233 233 232 232 232 235 238 239 240 240 241 243 245 247 248 248 249 252 254 256 255 254 255 257 257 257 259 261 265 270 273 271 271 270 270 276 284 289 294 300 308 312 316 321 325 329 329 325 323 323 320 321 325 328 329 329 329 329 330 331 331 332 331 329 329 328 328 328 327 328 329 332 334 335 336 337 339 341 344 346 347 348
231 235 234 234 233 234 235 234 236 238 239 240 241 241 243 245 247 249 250 250 250 252 254 254 254 255 256 257 257 259 261 263 267 272 272 271 271 272 278 286 291 295 301 308 310 311 316 322 326 327 324 320 317 314 316 320 323 325 326 326 327 327 329 330 331 330 327 327 327 327 327 327 328 330 332 333 334 335 336 338 340 341 343 344 344
230 234 234 235 234 234 235 233 233 235 237 238 240 241 243 244 247 250 250 250 249 249 251 253 253 254 255 256 258 260 262 263 264 268 271 271 271 274 280 288 294 301 306 308 308 305 309 317 322 324 323 318 313 311 312 315 318 319 321 323 324 325 326 327 328 328 326 326 326 327 327 327 329 330 332 333 334 334 336 337 338 340 340 340 341
229 232 234 235 235 235 235 232 230 232 236 237 238 240 242 243 245 247 247 247 246 246 248 251 252 253 254 255 258 260 261 262 263 265 268 270 272 275 281 290 297 301 305 306 305 303 304 310 316 320 320 315 311 308 309 312 315 317 317 319 321 322 323 325 326 326 325 325 326 327 327 328 329 331 331 332 332 333 335 336 338 340 341 340 341
228 232 235 236 236 235 234 231 229 230 234 236 237 239 240 241 244 245 244 243 243 244 246 249 251 252 253 253 256 258 260 261 262 262 264 267 270 276 284 292 297 298 300 302 303 303 303 305 307 310 312 311 308 306 306 310 314 316 316 316 317 319 321 323 324 324 324 325 326 327 328 329 330 330 330 331 331 332 334 335 338 341 342 342 343
228 233 235 236 236 234 232 230 228 229 232 235 236 236 237 240 242 244 242 240 240 242 244 247 249 251 252 252 254 256 258 260 260 260 262 265 269 275 283 290 295 296 297 299 300 303 304 302 300 302 304 306 307 305 305 308 311 313 314 314 315 318 319 321 323 323 323 325 326 327 328 329 329 329 329 330 330 331 333 334 336 339 342 342 343
227 231 233 234 234 233 231 229 228 228 230 233 234 234 236 239 242 243 242 240 239 241 244 246 248 250 251 252 253 254 256 258 258 258 261 265 270 274 281 288 292 294 296 296 298 302 303 299 297 298 301 304 306 305 304 307 309 311 313 313 314 316 318 320 321 321 322 324 325 326 326 327 327 327 327 328 328 330 332 334 334 336 338 340 341
227 229 231 231 232 231 230 229 228 228 228 230 231 233 235 239 244 244 242 241 240 240 243 246 247 249 250 251 251 252 254 255 257 258 260 264 269 273 278 284 289 292 296 297 298 301 301 298 297 298 299 303 306 305 303 306 308 309 310 311 312 315 316 317 318 319 320 322 323 324 324 325 325 326 326 326 327 329 331 333 334 334 336 337 338
230 230 230 230 230 230 229 228 227 226 226 228 229 232 236 241 245 245 242 241 241 240 242 245 247 248 249 250 251 252 253 255 256 258 260 263 267 271 275 280 285 291 295 298 298 299 301 300 298 298 298 300 304 305 304 306 308 308 310 311 312 314 315 315 316 317 318 319 321 321 322 324 325 325 326 326 327 329 330 333 334 335 336 337 338
229 230 229 229 231 231 229 229 227 226 226 228 228 230 237 242 244 243 240 240 241 241 241 244 247 247 248 250 251 252 253 254 256 258 260 263 266 269 273 277 282 288 293 298 299 299 301 301 298 297 296 298 303 305 305 308 309 309 311 312 312 314 315 315 315 316 317 318 319 320 321 323 325 325 326 328 329 329 330 332 334 335 336 338 339
229 231 230 229 232 233 231 229 229 228 228 229 229 230 236 241 242 242 240 240 241 242 241 243 246 248 249 249 250 252 253 254 256 257 258 261 265 269 273 276 281 287 294 298 300 300 301 300 297 296 296 298 301 303 305 309 310 311 312 312 312 314 315 316 316 316 317 317 317 319 321 324 325 325 327 328 330 330 332 333 334 335 336 337 340
229 232 234 234 234 234 232 231 230 229 229 230 231 231 234 238 240 240 241 240 240 242 243 244 246 248 249 249 250 252 253 254 255 256 257 259 264 269 273 277 282 287 292 296 297 297 297 296 296 297 298 301 304 306 309 312 312 313 313 313 313 313 315 316 317 317 317 317 318 319 322 323 324 325 326 328 330 331 332 333 334 334 335 337 339
233 233 236 238 237 235 233 232 231 230 229 230 232 232 233 236 237 238 240 241 240 241 242 243 245 248 249 249 249 251 253 254 255 256 258 260 263 268 272 277 282 286 290 294 293 293 295 297 298 298 300 305 308 310 312 314 315 315 314 314 314 314 316 317 318 317 317 316 317 319 321 322 323 323 325 327 329 330 331 332 333 334 335 336 338
240 236 236 239 238 234 231 232 231 230 230 230 231 231 232 234 235 236 239 240 240 240 242 243 245 247 249 250 250 251 252 254 255 256 258 260 263 266 271 275 280 285 290 291 291 292 296 298 296 296 300 306 308 311 313 314 316 318 318 318 319 319 319 319 318 316 315 315 315 317 319 320 321 322 323 325 327 328 329 331 333 334 334 335 337
239 236 235 237 236 233 230 229 229 229 229 229 230 231 231 233 234 235 238 239 239 239 241 243 245 247 249 251 251 252 253 254 255 256 258 260 262 265 269 274 278 282 285 287 288 292 295 296 294 295 300 305 308 310 312 314 316 319 321 322 322 323 322 320 318 316 315 314 314 316 318 319 320 321 323 325 327 328 330 332 334 334 334 335 335
243 239 236 233 231 229 228 226 226 227 228 229 230 230 231 234 234 235 237 238 238 238 240 241 244 247 249 250 252 253 254 255 256 257 258 260 262 265 268 273 276 278 279 281 284 287 290 292 294 296 300 304 306 307 309 311 315 317 319 320 321 323 324 322 319 316 314 314 314 316 318 318 320 321 324 326 328 330 332 334 336 337 337 336 335
243 241 240 236 230 225 224 224 225 226 228 230 230 231 231 234 236 236 236 238 238 238 240 241 243 245 247 250 252 253 254 257 258 258 259 260 262 264 267 270 272 274 275 277 279 281 284 287 290 293 295 298 299 301 303 306 310 313 315 316 317 319 321 319 316 314 314 314 313 315 317 319 321 323 326 328 329 331 333 335 337 340 341 340 338
242 240 242 240 231 226 225 226 227 229 230 230 231 232 233 234 237 238 238 239 241 241 241 243 243 244 245 247 250 252 253 255 257 259 260 261 262 263 265 267 270 272 274 275 276 277 280 282 284 286 289 292 293 294 296 299 303 307 309 311 314 317 319 317 314 314 313 312 313 316 318 320 322 325 328 330 330 331 332 334 336 338 341 341 340
243 243 242 238 230 227 227 228 231 233 234 232 232 233 234 235 237 239 240 241 242 242 243 244 244 243 243 245 247 249 250 252 255 257 258 260 262 263 264 266 268 271 273 273 273 275 279 282 283 284 286 289 291 292 294 296 299 301 304 307 310 313 316 315 314 313 310 307 310 314 318 321 323 326 329 331 330 330 331 332 333 334 336 337 337
243 244 240 237 231 229 229 230 233 236 236 234 234 235 236 237 238 240 241 241 240 239 240 243 246 245 244 244 244 246 247 249 252 255 257 260 262 262 263 265 268 270 271 271 271 273 277 281 284 285 286 288 289 291 292 293 296 299 301 303 306 309 312 313 313 314 313 310 310 313 317 321 324 327 329 331 331 330 330 330 330 330 332 333 334
240 241 237 236 234 232 233 233 233 236 237 235 237 239 239 239 240 241 242 242 242 239 237 237 241 244 245 245 246 246 247 249 251 253 256 259 261 261 262 263 266 268 270 270 270 271 275 278 282 286 288 289 288 288 289 290 292 294 296 298 301 304 307 309 312 315 315 313 313 315 318 322 324 326 328 330 331 330 330 330 329 329 329 330 330
238 239 234 234 236 235 234 236 236 237 238 238 238 241 244 242 240 241 242 242 242 241 240 238 237 239 241 243 245 246 247 249 250 253 255 257 258 260 260 261 263 266 268 268 269 270 273 275 279 285 289 290 289 289 289 290 292 293 293 295 297 301 303 306 309 312 313 312 313 315 319 322 322 322 325 328 328 327 328 329 328 328 328 328 329
235 237 234 234 236 236 234 237 239 240 243 242 238 239 243 244 241 239 241 242 242 242 242 241 241 241 240 240 242 245 248 250 251 252 254 255 256 258 258 259 261 264 265 266 267 269 271 274 277 283 287 288 289 288 289 290 292 292 293 294 297 299 301 303 306 307 308 310 310 312 315 318 317 316 319 322 324 323 323 324 325 325 327 328 328
232 233 235 235 236 235 234 235 237 240 243 244 241 239 242 245 242 238 239 241 243 244 244 243 244 246 246 244 243 246 247 248 250 250 251 252 254 255 257 259 260 262 263 263 264 266 269 271 274 278 283 285 286 285 285 287 289 290 292 295 296 295 295 297 299 300 301 303 305 307 310 312 312 312 314 316 317 317 318 319 321 323 326 327 326
233 232 234 236 235 235 235 234 235 238 241 243 244 243 244 245 242 238 239 242 244 246 246 246 244 245 247 247 247 249 249 249 249 249 250 251 252 253 256 259 260 261 262 263 263 264 268 269 269 272 278 284 286 283 281 282 284 286 290 293 295 294 293 294 295 296 299 300 301 302 304 306 307 308 309 311 311 312 313 314 317 322 325 325 324
235 235 235 236 236 235 235 235 236 239 241 242 246 248 247 244 239 236 237 241 245 246 246 246 245 244 245 246 248 250 251 251 249 248 250 252 253 254 256 259 261 262 262 263 264 264 265 265 265 266 270 278 282 281 280 278 279 281 284 289 293 294 295 295 295 296 298 299 300 301 302 302 304 305 304 304 304 307 309 310 314 320 323 323 323
236 237 236 237 238 235 234 235 236 238 240 240 242 246 246 244 239 236 237 240 243 245 246 245 245 244 245 247 249 250 252 252 250 248 249 252 254 257 259 260 263 264 264 264 264 265 263 262 262 261 263 268 272 274 277 277 277 278 280 284 288 290 293 296 296 295 296 297 299 300 301 302 303 305 304 302 300 301 303 306 309 314 319 320 321
236 235 235 238 240 237 235 235 236 237 238 238 237 238 240 240 237 235 237 240 242 244 245 244 244 245 246 249 251 251 252 254 251 247 249 251 254 257 260 262 264 266 267 266 266 266 265 263 262 260 259 263 267 270 273 276 277 279 280 281 282 284 289 294 296 295 294 296 297 298 299 300 300 303 305 305 304 303 303 302 303 307 313 314 315
236 235 233 235 239 238 235 235 236 236 237 238 237 235 235 235 235 234 235 238 238 240 241 241 242 243 245 249 250 248 252 254 248 246 250 254 256 258 259 262 265 267 269 270 268 268 266 263 262 261 259 262 266 270 272 274 277 280 281 281 280 280 284 290 293 294 293 294 296 297 297 298 299 300 303 304 304 306 308 305 301 303 308 310 311
236 235 233 232 236 237 234 235 236 235 235 236 237 238 237 234 233 235 237 237 236 236 237 238 239 240 242 245 246 246 249 249 245 246 254 258 260 261 260 261 265 266 269 270 269 267 267 264 262 260 259 262 266 269 272 275 279 282 283 283 282 281 284 287 290 292 292 293 295 297 298 299 299 300 302 302 302 305 310 309 304 303 306 307 309
237 237 235 233 235 235 233 234 236 235 234 235 235 238 240 237 235 235 236 237 236 234 235 235 236 237 239 241 243 244 245 245 244 249 257 261 262 263 261 261 263 265 266 268 268 266 265 264 262 261 260 261 264 267 271 275 278 282 284 284 284 284 285 287 290 292 292 292 293 295 297 299 299 299 301 301 302 306 310 309 307 305 304 306 308
236 237 237 236 236 236 233 231 233 234 233 234 235 236 238 240 239 236 235 236 235 234 234 234 235 236 237 239 240 241 242 243 244 249 256 259 261 262 261 259 260 262 264 265 265 264 264 263 263 262 262 262 263 266 269 273 277 281 283 285 287 287 287 289 291 292 291 290 290 291 292 294 296 297 299 300 302 307 310 308 305 304 304 306 307
235 237 239 238 239 239 235 232 234 235 233 232 234 235 236 238 239 237 236 237 237 236 235 236 238 240 240 241 241 241 242 242 243 246 251 255 258 259 257 255 257 260 261 262 262 263 263 264 264 264 262 262 263 264 268 273 278 282 284 286 288 288 288 289 290 291 290 288 289 289 288 290 292 293 296 299 301 306 309 306 303 303 304 305 306
234 235 238 239 240 241 238 235 235 238 237 233 232 236 240 240 238 238 238 238 239 240 240 240 241 243 244 245 244 246 246 245 243 244 247 250 254 254 252 252 255 258 258 259 260 260 261 263 264 263 262 261 261 264 269 275 279 282 284 287 288 286 286 288 288 289 290 288 287 287 286 287 289 290 294 298 300 304 307 304 303 302 302 303 305
232 232 234 239 244 244 242 239 237 238 240 237 234 237 244 245 241 239 240 241 243 243 242 242 243 246 248 248 249 251 252 249 247 246 246 248 249 247 250 254 255 255 256 257 258 259 260 262 262 263 263 262 262 264 269 274 276 279 282 284 284 282 284 287 288 290 293 291 285 285 286 287 286 288 292 295 297 301 304 303 303 302 301 303 305
Height
5843 5844 5845 5846 5847 5848 5849 5850 5851 5852 5853 5854 5855 5855 5856 5856 5857 5858 5858 5859 5859 5859 5858 5858 5858 5857 5857 5857 5857 5857 5857 5857 5857 5857 5857 5858 5858 5858 5858 5858 5857 5857 5856 5855 5854 5853 5852 5852 5851 5849 5848 5847 5846 5845 5844 5843 5842 5842 5841 5840 5840 5839 5839 5838 5837 5837 5836 5836 5835 5835 5834 5833 5832 5831 5830 5829 5828 5827 5826 5824 5823 5821 5820 5818 5816
5841 5842 5844 5844 5846 5847 5847 5848 5849 5850 5851 5852 5853 5854 5854 5855 5856 5856 5857 5857 5858 5858 5857 5857 5857 5857 5857 5856 5856 5856 5856 5856 5857 5857 5857 5857 5858 5858 5858 5857 5856 5856 5855 5854 5853 5852 5852 5851 5850 5849 5848 5847 5846 5845 5844 5843 5842 5841 5840 5840 5839 5839 5838 5837 5836 5836 5835 5835 5834 5834 5833 5832 5831 5830 5829 5828 5827 5825 5824 5823 5821 5819 5818 5816 5814
5840 5840 5842 5843 5844 5845 5846 5846 5847 5848 5850 5851 5851 5852 5853 5854 5854 5855 5855 5856 5856 5856 5856 5856 5856 5856 5856 5856 5856 5856 5856 5856 5856 5856 5856 5857 5857 5857 5857 5856 5856 5855 5854 5853 5852 5852 5851 5850 5849 5848 5847 5846 5846 5845 5844 5842 5841 5840 5840 5839 5839 5838 5837 5836 5836 5835 5834 5834 5833 5833 5832 5831 5830 5829 5828 5826 5825 5824 5823 5821 5819 5818 5816 5814 5812
5838 5839 5840 5841 5842 5843 5844 5844 5845 5847 5848 5849 5849 5850 5851 5852 5853 5854 5854 5855 5855 5855 5855 5855 5855 5855 5855 5855 5855 5855 5855 5855 5855 5855 5856 5856 5856 5856 5856 5855 5855 5854 5853 5852 5852 5851 5850 5849 5848 5847 5847 5846 5845 5844 5843 5842 5841 5840 5839 5839 5838 5837 5837 5836 5835 5834 5834 5833 5833 5832 5831 5830 5829 5828 5826 5825 5824 5822 5821 5819 5818 5816 5814 5812 5811
5835 5837 5838 5839 5840 5842 5843 5843 5843 5845 5846 5847 5848 5849 5849 5851 5852 5852 5853 5853 5854 5854 5854 5854 5854 5854 5854 5854 5855 5854 5854 5854 5854 5854 5855 5855 5855 5855 5855 5854 5853 5853 5852 5852 5851 5850 5850 5849 5848 5847 5846 5845 5844 5843 5842 5841 5840 5839 5838 5838 5837 5837 5836 5835 5834 5834 5833 5832 5832 5831 5830 5829 5828 5826 5825 5824 5822 5821 5820 5818 5816 5814 5812 5811 5809
5833 5834 5835 5837 5838 5839 5841 5841 5842 5843 5845 5846 5846 5847 5848 5849 5850 5851 5851 5852 5852 5853 5853 5853 5853 5853 5853 5853 5853 5854 5853 5853 5853 5853 5853 5854 5854 5853 5853 5853 5852 5852 5851 5851 5850 5850 5849 5848 5847 5846 5845 5844 5844 5843 5841 5840 5839 5838 5837 5837 5836 5836 5835 5834 5833 5833 5832 5832 5831 5830 5829 5828 5827 5825 5824 5823 5821 5820 5818 5816 5814 5813 5811 5809 5807
5830 5831 5833 5834 5835 5837 5838 5839 5840 5842 5843 5844 5845 5846 5847 5847 5848 5849 5849 5850 5851 5851 5851 5851 5852 5852 5852 5852 5852 5852 5852 5852 5852 5852 5852 5852 5853 5852 5852 5851 5851 5851 5850 5850 5849 5849 5847 5847 5846 5845 5844 5843 5843 5842 5841 5839 5838 5837 5836 5836 5835 5835 5834 5833 5832 5832 5831 5831 5830 5829 5828 5827 5826 5825 5823 5822 5820 5819 5817 5815 5813 5811 5809 5807 5805
5827 5829 5830 5832 5833 5835 5836 5837 5838 5840 5842 5843 5844 5845 5846 5846 5847 5847 5848 5848 5849 5849 5850 5850 5850 5850 5850 5850 5851 5851 5851 5851 5851 5851 5850 5850 5851 5851 5851 5851 5850 5849 5849 5849 5849 5848 5846 5845 5845 5844 5843 5842 5841 5840 5840 5838 5837 5836 5835 5835 5834 5834 5833 5832 5831 5831 5830 5830 5829 5828 5827 5826 5825 5824 5822 5821 5819 5817 5815 5813 5812 5810 5807 5805 5803
5825 5827 5828 5829 5831 5832 5834 5835 5837 5838 5840 5841 5842 5844 5845 5845 5845 5846 5846 5847 5847 5848 5848 5849 5849 5849 5849 5849 5849 5849 5850 5850 5850 5850 5849 5849 5849 5849 5850 5850 5849 5848 5848 5848 5848 5847 5846 5845 5844 5843 5842 5841 5840 5839 5838 5837 5836 5835 5834 5834 5833 5833 5832 5831 5830 5830 5829 5829 5828 5827 5826 5825 5824 5822 5821 5819 5818 5816 5814 5812 5810 5808 5806 5804 5802
5824 5825 5826 5827 5829 5830 5832 5834 5835 5837 5838 5839 5840 5842 5843 5844 5844 5845 5845 5845 5846 5846 5847 5847 5848 5848 5848 5848 5848 5848 5848 5849 5848 5848 5848 5848 5847 5848 5848 5848 5848 5847 5847 5846 5846 5845 5844 5844 5843 5842 5841 5840 5839 5838 5837 5836 5835 5834 5833 5833 5832 5832 5831 5830 5830 5829 5828 5828 5827 5826 5825 5824 5822 5821 5819 5818 5816 5814 5812 5810 5808 5806 5804 5802 5800
5822 5823 5824 5826 5827 5829 5830 5832 5834 5835 5836 5837 5838 5839 5841 5842 5843 5843 5843 5844 5844 5845 5846 5846 5846 5846 5847 5847 5847 5847 5847 5847 5847 5847 5847 5846 5846 5846 5846 5846 5847 5846 5846 5845 5844 5843 5842 5842 5842 5841 5840 5839 5838 5837 5836 5835 5834 5833 5832 5832 5831 5830 5830 5829 5829 5828 5828 5827 5826 5825 5824 5822 5821 5820 5818 5816 5814 5812 5811 5809 5807 5805 5803 5801 5799
5820 5822 5823 5824 5825 5827 5828 5830 5831 5833 5834 5835 5836 5837 5838 5840 5841 5841 5842 5842 5843 5843 5844 5845 5845 5845 5845 5845 5845 5845 5846 5846 5846 5846 5845 5845 5845 5845 5845 5845 5845 5845 5845 5844 5844 5843 5841 5840 5840 5839 5839 5838 5837 5835 5834 5834 5833 5832 5831 5830 5830 5829 5829 5829 5828 5827 5827 5826 5825 5824 5823 5821 5820 5818 5816 5815 5813 5811 5809 5807 5805 5803 5801 5799 5797
5818 5819 5820 5821 5822 5824 5826 5827 5829 5830 5832 5833 5834 5835 5836 5838 5839 5839 5840 5840 5841 5842 5842 5843 5844 5844 5844 5844 5844 5844 5844 5844 5845 5845 5844 5844 5844 5844 5844 5843 5843 5843 5843 5843 5843 5842 5841 5839 5838 5838 5838 5837 5836 5834 5833 5832 5832 5831 5830 5829 5829 5828 5828 5828 5827 5826 5826 5825 5824 5823 5821 5820 5818 5816 5815 5813 5812 5810 5808 5806 5804 5802 5800 5798 5796
5815 5816 5817 5818 5820 5821 5823 5825 5826 5827 5829 5830 5831 5833 5834 5835 5836 5837 5838 5839 5839 5840 5841 5841 5842 5842 5842 5843 5843 5843 5843 5843 5843 5843 5843 5843 5842 5842 5842 5842 5842 5841 5841 5841 5841 5841 5840 5838 5837 5836 5836 5835 5834 5834 5833 5832 5831 5830 5829 5828 5827 5827 5827 5826 5826 5825 5825 5824 5823 5822 5820 5819 5817 5815 5814 5812 5811 5809 5807 5805 5803 5801 5799 5796 5794
5811 5813 5814 5815 5817 5819 5821 5823 5824 5825 5826 5827 5829 5830 5832 5833 5834 5835 5836 5837 5837 5838 5839 5839 5840 5840 5841 5841 5841 5841 5841 5841 5842 5842 5842 5841 5841 5840 5840 5840 5840 5840 5840 5840 5839 5839 5839 5838 5836 5835 5835 5834 5833 5832 5831 5831 5830 5829 5828 5827 5827 5826 5826 5825 5825 5824 5823 5823 5821 5820 5819 5817 5816 5814 5813 5811 5810 5808 5806 5804 5802 5800 5798 5796 5793
5807 5809 5811 5812 5814 5816 5818 5820 5821 5822 5824 5825 5827 5828 5830 5831 5832 5832 5833 5834 5835 5836 5836 5837 5838 5838 5839 5839 5839 5839 5839 5839 5840 5840 5840 5840 5840 5839 5839 5838 5839 5839 5838 5838 5838 5838 5837 5837 5836 5835 5834 5833 5832 5830 5829 5829 5829 5828 5827 5826 5826 5825 5824 5824 5823 5823 5822 5821 5820 5819 5818 5816 5815 5813 5811 5810 5808 5807 5805 5803 5801 5799 5797 5795 5792
5804 5806 5808 5810 5812 5813 5815 5817 5819 5820 5821 5823 5824 5826 5827 5828 5829 5830 5831 5832 5832 5833 5834 5835 5835 5836 5836 5837 5837 5838 5837 5838 5838 5838 5838 5839 5838 5838 5837 5837 5837 5837 5837 5837 5837 5836 5836 5835 5835 5834 5833 5832 5832 5831 5829 5827 5827 5827 5826 5825 5824 5824 5823 5822 5822 5821 5820 5820 5819 5818 5816 5815 5813 5812 5810 5809 5807 5806 5804 5802 5800 5798 5796 5793 5791
5800 5802 5804 5806 5808 5809 5811 5814 5815 5817 5818 5820 5821 5823 5824 5826 5827 5828 5828 5829 5830 5831 5832 5832 5833 5834 5834 5835 5835 5836 5836 5836 5837 5836 5836 5837 5837 5836 5836 5836 5835 5836 5836 5835 5835 5835 5834 5834 5833 5833 5832 5831 5830 5830 5829 5827 5825 5825 5824 5824 5823 5822 5821 5821 5820 5819 5819 5818 5817 5816 5815 5813 5812 5810 5809 5807 5806 5804 5802 5800 5798 5796 5794 5792 5790
5796 5798 5800 5802 5804 5805 5807 5810 5812 5813 5814 5816 5818 5820 5821 5822 5824 5825 5826 5826 5827 5829 5829 5829 5830 5831 5831 5832 5833 5833 5834 5834 5835 5835 5835 5835 5835 5835 5834 5834 5834 5834 5834 5834 5834 5833 5832 5832 5831 5831 5830 5830 5829 5828 5827 5826 5825 5823 5822 5822 5821 5820 5820 5819 5818 5817 5817 5816 5815 5814 5813 5812 5811 5809 5808 5806 5805 5803 5801 5799 5797 5795 5793 5791 5788
5791 5794 5796 5798 5801 5802 5804 5806 5808 5809 5810 5813 5815 5816 5818 5819 5821 5821 5822 5823 5824 5825 5826 5827 5828 5828 5829 5830 5830 5831 5832 5832 5833 5833 5833 5833 5833 5833 5833 5833 5833 5832 5832 5832 5832 5831 5831 5830 5829 5829 5828 5828 5827 5826 5825 5824 5824 5822 5821 5820 5820 5819 5818 5817 5817 5816 5815 5814 5814 5813 5812 5810 5809 5808 5806 5805 5803 5801 5800 5797 5795 5793 5791 5789 5786
5786 5789 5791 5795 5797 5799 5800 5802 5805 5806 5807 5809 5811 5813 5815 5816 5817 5818 5819 5820 5821 5822 5823 5824 5825 5826 5827 5828 5828 5829 5830 5830 5831 5831 5831 5831 5831 5831 5831 5831 5831 5831 5831 5830 5830 5830 5829 5829 5828 5827 5827 5826 5826 5825 5824 5822 5822 5821 5820 5818 5818 5817 5817 5816 5815 5814 5813 5812 5812 5811 5810 5809 5807 5806 5804 5803 5801 5800 5798 5796 5794 5791 5789 5786 5784
5781 5784 5787 5791 5793 5795 5797 5799 5801 5802 5803 5805 5807 5810 5812 5813 5814 5814 5815 5816 5817 5819 5820 5822 5823 5823 5824 5825 5825 5826 5827 5828 5829 5829 5829 5829 5829 5829 5829 5830 5830 5829 5829 5828 5828 5828 5828 5827 5826 5825 5825 5825 5824 5823 5822 5821 5820 5819 5818 5817 5816 5815 5815 5814 5813 5812 5812 5811 5810 5809 5808 5807 5805 5804 5802 5801 5799 5798 5796 5794 5792 5789 5787 5785 5783
5775 5778 5782 5786 5789 5792 5793 5795 5796 5798 5800 5802 5804 5806 5808 5809 5810 5811 5812 5813 5814 5816 5817 5819 5820 5821 5822 5822 5823 5823 5824 5826 5826 5827 5827 5827 5827 5827 5827 5827 5827 5827 5827 5827 5826 5826 5826 5825 5824 5824 5823 5823 5822 5821 5820 5820 5819 5818 5816 5815 5814 5814 5813 5813 5812 5811 5810 5809 5808 5807 5806 5805 5804 5802 5801 5799 5798 5796 5795 5792 5790 5787 5785 5783 5781
5769 5773 5777 5781 5784 5788 5790 5791 5792 5794 5796 5798 5800 5802 5804 5805 5806 5808 5809 5810 5811 5813 5815 5816 5817 5818 5819 5819 5820 5820 5822 5823 5824 5825 5825 5825 5825 5825 5825 5825 5825 5825 5826 5825 5825 5824 5824 5823 5823 5822 5822 5821 5820 5820 5819 5818 5817 5816 5815 5814 5813 5813 5812 5811 5810 5809 5808 5807 5806 5805 5804 5803 5802 5801 5799 5798 5797 5795 5793 5791 5789 5786 5784 5782 5780
5765 5769 5773 5777 5780 5783 5786 5787 5789 5791 5792 5794 5796 5798 5799 5801 5802 5804 5806 5807 5808 5810 5812 5813 5814 5815 5816 5816 5817 5818 5819 5820 5821 5822 5822 5823 5823 5823 5823 5824 5823 5823 5824 5824 5823 5822 5822 5821 5821 5820 5820 5819 5818 5818 5818 5817 5815 5814 5814 5813 5811 5811 5810 5810 5809 5808 5807 5805 5804 5803 5802 5801 5800 5799 5798 5797 5795 5794 5792 5790 5788 5785 5783 5780 5778
5761 5765 5769 5772 5775 5778 5781 5783 5785 5786 5787 5789 5792 5794 5795 5797 5798 5800 5802 5803 5804 5806 5808 5809 5810 5812 5813 5814 5815 5815 5816 5817 5818 5819 5820 5820 5821 5821 5821 5822 5822 5821 5821 5822 5821 5821 5820 5819 5819 5818 5818 5817 5816 5816 5816 5815 5814 5812 5812 5811 5810 5809 5809 5808 5807 5806 5805 5803 5802 5801 5800 5799 5798 5797 5796 5795 5794 5792 5791 5789 5786 5784 5781 5779 5777
5755 5760 5764 5767 5769 5773 5776 5778 5781 5782 5784 5785 5787 5789 5791 5793 5794 5796 5798 5799 5801 5803 5805 5806 5807 5808 5810 5811 5812 5812 5813 5815 5816 5816 5817 5818 5818 5819 5819 5820 5820 5819 5819 5819 5819 5818 5818 5817 5816 5816 5816 5816 5815 5815 5815 5814 5812 5811 5810 5809 5808 5808 5807 5807 5806 5804 5803 5802 5801 5799 5798 5797 5796 5795 5794 5793 5792 5790 5789 5787 5785 5782 5780 5777 5775
5751 5755 5758 5761 5764 5768 5770 5774 5777 5778 5780 5781 5782 5784 5786 5788 5790 5792 5793 5795 5798 5800 5801 5803 5804 5805 5806 5808 5809 5809 5810 5812 5813 5813 5814 5815 5816 5816 5817 5817 5818 5818 5817 5817 5817 5817 5816 5816 5815 5815 5814 5814 5814 5813 5813 5812 5811 5810 5809 5808 5807 5806 5806 5805 5804 5803 5802 5800 5799 5798 5797 5796 5794 5793 5792 5791 5790 5788 5787 5785 5783 5780 5778 5775 5773
5747 5750 5753 5755 5758 5762 5765 5768 5771 5773 5775 5776 5777 5779 5781 5783 5786 5787 5789 5791 5794 5796 5797 5799 5801 5801 5802 5804 5805 5807 5807 5808 5810 5810 5811 5812 5813 5814 5815 5815 5816 5815 5815 5815 5814 5814 5815 5814 5814 5813 5813 5812 5812 5812 5812 5811 5810 5809 5807 5806 5806 5805 5804 5804 5803 5802 5800 5799 5798 5797 5795 5794 5792 5791 5790 5789 5788 5786 5784 5783 5780 5778 5776 5773 5771
5742 5744 5748 5750 5751 5754 5758 5762 5765 5768 5769 5770 5772 5773 5775 5778 5781 5783 5785 5787 5789 5792 5793 5795 5797 5798 5799 5801 5802 5803 5804 5805 5806 5807 5808 5809 5810 5811 5812 5813 5813 5813 5812 5812 5812 5811 5812 5812 5812 5811 5811 5810 5810 5810 5810 5809 5807 5807 5806 5805 5804 5803 5803 5802 5801 5800 5799 5798 5796 5795 5794 5792 5791 5789 5788 5787 5785 5784 5782 5780 5778 5776 5773 5771 5768
5734 5736 5740 5742 5743 5746 5750 5754 5758 5761 5762 5764 5766 5768 5770 5772 5775 5778 5780 5782 5785 5787 5789 5791 5793 5794 5796 5797 5799 5800 5801 5802 5803 5804 5805 5806 5807 5808 5809 5810 5810 5810 5810 5809 5809 5809 5809 5809 5809 5809 5808 5808 5808 5807 5807 5806 5805 5804 5804 5803 5802 5802 5801 5800 5799 5798 5797 5796 5794 5793 5792 5790 5789 5787 5786 5784 5783 5781 5779 5777 5775 5773 5771 5768 5766
5728 5728 5731 5733 5734 5737 5741 5745 5749 5753 5756 5758 5760 5763 5765 5767 5770 5773 5775 5777 5779 5782 5785 5787 5789 5791 5793 5794 5796 5797 5798 5799 5800 5801 5802 5803 5804 5805 5806 5806 5806 5807 5807 5807 5806 5806 5806 5806 5806 5806 5806 5805 5805 5804 5804 5803 5803 5802 5801 5801 5801 5800 5799 5798 5797 5796 5795 5794 5792 5791 5790 5789 5787 5785 5784 5782 5781 5779 5777 5775 5773 5771 5769 5766 5763
5722 5724 5725 5727 5728 5730 5734 5739 5743 5747 5750 5752 5754 5757 5760 5762 5765 5768 5771 5773 5775 5778 5781 5783 5785 5787 5789 5791 5792 5794 5795 5796 5797 5798 5799 5800 5801 5802 5802 5802 5803 5803 5803 5803 5803 5803 5803 5804 5803 5803 5803 5803 5802 5801 5801 5801 5800 5800 5799 5799 5799 5799 5798 5797 5795 5794 5793 5792 5790 5789 5788 5786 5785 5783 5782 5780 5778 5777 5775 5773 5771 5769 5766 5764 5761
5717 5719 5721 5723 5725 5729 5733 5737 5740 5743 5745 5746 5750 5753 5755 5757 5760 5764 5767 5770 5773 5776 5778 5780 5782 5784 5786 5787 5789 5790 5791 5792 5794 5795 5797 5798 5798 5799 5799 5799 5799 5799 5799 5800 5800 5799 5799 5800 5800 5800 5800 5800 5799 5799 5798 5798 5798 5798 5797 5797 5796 5796 5796 5795 5794 5792 5790 5789 5788 5786 5785 5784 5782 5781 5779 5778 5776 5774 5772 5771 5769 5766 5764 5762 5759
5711 5714 5717 5720 5722 5725 5729 5733 5736 5739 5740 5742 5745 5748 5750 5753 5756 5759 5763 5766 5770 5772 5775 5777 5778 5780 5782 5783 5784 5786 5787 5788 5790 5791 5793 5794 5795 5796 5796 5796 5796 5796 5796 5796 5796 5796 5795 5795 5796 5796 5797 5796 5796 5796 5795 5795 5795 5795 5795 5794 5794 5793 5793 5793 5792 5790 5789 5788 5786 5784 5782 5781 5780 5778 5777 5775 5773 5772 5770 5768 5766 5764 5762 5760 5757
5705 5709 5712 5715 5717 5719 5721 5725 5729 5732 5736 5739 5741 5742 5745 5748 5752 5754 5757 5760 5763 5766 5770 5773 5774 5776 5778 5780 5781 5782 5782 5784 5786 5787 5789 5790 5792 5792 5792 5792 5792 5792 5793 5793 5793 5792 5792 5791 5791 5792 5792 5793 5793 5793 5793 5792 5792 5792 5791 5791 5790 5790 5790 5790 5789 5788 5787 5786 5784 5782 5781 5779 5778 5776 5774 5773 5771 5769 5767 5765 5763 5761 5759 5757 5755
5698 5703 5706 5709 5712 5714 5716 5719 5723 5726 5731 5735 5737 5738 5741 5744 5747 5750 5752 5755 5757 5761 5764 5766 5768 5771 5774 5777 5778 5778 5778 5780 5782 5783 5785 5786 5787 5788 5788 5788 5788 5789 5789 5789 5789 5789 5789 5788 5787 5787 5788 5788 5789 5789 5789 5789 5789 5788 5788 5788 5787 5787 5786 5786 5786 5785 5784 5783 5782 5781 5779 5777 5775 5774 5772 5771 5769 5767 5765 5763 5761 5758 5756 5754 5752
5692 5696 5699 5703 5707 5710 5712 5715 5718 5722 5727 5730 5731 5734 5737 5739 5742 5744 5746 5749 5752 5756 5758 5760 5762 5765 5768 5771 5773 5774 5774 5776 5778 5780 5781 5781 5782 5783 5784 5785 5785 5785 5785 5785 5785 5785 5785 5785 5784 5784 5784 5784 5784 5785 5784 5784 5785 5785 5784 5784 5784 5783 5783 5782 5782 5782 5781 5780 5779 5777 5776 5775 5773 5771 5770 5768 5766 5764 5762 5760 5758 5756 5753 5751 5749
5686 5690 5694 5697 5701 5705 5708 5711 5713 5717 5722 5724 5725 5727 5730 5733 5736 5738 5740 5743 5747 5751 5754 5756 5759 5761 5763 5765 5767 5769 5771 5772 5774 5775 5776 5777 5778 5779 5780 5781 5781 5781 5782 5782 5781 5782 5782 5782 5781 5781 5781 5780 5780 5780 5780 5780 5780 5780 5780 5780 5780 5780 5779 5778 5778 5778 5777 5777 5776 5774 5773 5772 5771 5769 5767 5766 5764 5761 5760 5758 5756 5753 5751 5748 5746
5680 5684 5688 5691 5695 5699 5702 5706 5709 5712 5717 5719 5721 5722 5724 5726 5728 5732 5735 5738 5742 5746 5749 5752 5755 5757 5759 5761 5763 5765 5767 5768 5769 5770 5771 5772 5773 5774 5775 5777 5777 5777 5777 5778 5778 5778 5779 5779 5779 5778 5777 5777 5777 5777 5776 5776 5776 5776 5775 5776 5776 5776 5775 5775 5775 5774 5774 5774 5773 5772 5770 5769 5768 5767 5765 5763 5761 5759 5757 5755 5753 5750 5748 5745 5743
5673 5678 5682 5685 5688 5692 5697 5701 5704 5706 5710 5714 5716 5717 5719 5720 5722 5726 5731 5735 5738 5742 5745 5747 5749 5752 5754 5756 5759 5760 5762 5764 5764 5765 5766 5767 5768 5769 5771 5772 5773 5773 5774 5773 5774 5775 5775 5775 5776 5775 5774 5774 5774 5773 5772 5772 5772 5771 5771 5771 5772 5772 5772 5772 5772 5771 5769 5769 5769 5769 5768 5767 5765 5764 5763 5761 5758 5756 5754 5752 5750 5748 5745 5742 5740
5665 5671 5676 5679 5682 5687 5691 5695 5699 5702 5704 5707 5708 5709 5712 5713 5716 5720 5724 5728 5732 5736 5739 5741 5744 5746 5748 5750 5753 5755 5757 5758 5759 5760 5762 5762 5763 5764 5766 5767 5768 5769 5769 5770 5770 5771 5771 5771 5772 5771 5771 5771 5770 5769 5768 5768 5767 5767 5767 5767 5767 5768 5768 5768 5768 5767 5765 5763 5763 5764 5764 5763 5762 5760 5759 5759 5757 5754 5751 5748 5746 5745 5743 5739 5736
5657 5664 5670 5674 5677 5680 5685 5689 5693 5696 5698 5699 5700 5701 5704 5707 5709 5714 5718 5721 5725 5728 5731 5735 5738 5740 5743 5744 5747 5749 5751 5752 5753 5756 5757 5758 5758 5760 5761 5762 5763 5764 5765 5765 5766 5766 5766 5766 5767 5767 5767 5767 5766 5764 5764 5764 5763 5763 5763 5762 5762 5762 5762 5763 5764 5763 5761 5758 5758 5758 5758 5757 5757 5757 5756 5755 5754 5752 5750 5746 5743 5742 5741 5738 5734
5650 5656 5663 5668 5671 5673 5677 5682 5686 5689 5692 5693 5693 5694 5698 5700 5703 5707 5711 5714 5717 5720 5724 5728 5731 5734 5736 5738 5740 5742 5745 5746 5748 5750 5752 5753 5754 5755 5756 5757 5758 5759 5760 5761 5762 5761 5761 5761 5761 5762 5763 5763 5761 5760 5760 5759 5758 5758 5758 5758 5757 5757 5757 5758 5759 5759 5757 5754 5753 5754 5754 5753 5751 5752 5752 5751 5749 5748 5748 5745 5742 5739 5738 5736 5733
5644 5650 5657 5661 5663 5665 5670 5675 5679 5682 5684 5686 5688 5689 5691 5694 5697 5700 5704 5707 5709 5712 5716 5719 5723 5726 5729 5731 5733 5735 5738 5740 5742 5744 5745 5747 5748 5750 5751 5752 5752 5754 5755 5756 5757 5757 5756 5756 5757 5758 5759 5757 5756 5755 5754 5753 5753 5754 5754 5754 5752 5751 5752 5753 5754 5755 5754 5751 5749 5749 5750 5749 5747 5745 5746 5746 5743 5743 5743 5743 5740 5737 5734 5733 5730
5639 5645 5650 5653 5655 5659 5664 5668 5672 5675 5677 5680 5682 5684 5686 5690 5693 5695 5697 5699 5702 5705 5708 5711 5715 5718 5721 5723 5726 5729 5732 5734 5736 5737 5738 5740 5742 5744 5745 5746 5747 5748 5749 5750 5751 5751 5751 5751 5752 5753 5753 5752 5751 5750 5749 5748 5748 5749 5749 5749 5748 5747 5747 5748 5749 5750 5749 5748 5746 5743 5744 5744 5742 5740 5741 5740 5737 5737 5737 5736 5736 5734 5731 5729 5726
5633 5638 5642 5646 5649 5653 5658 5662 5664 5667 5671 5673 5676 5679 5682 5685 5688 5689 5691 5693 5696 5698 5700 5703 5706 5709 5712 5715 5718 5721 5725 5727 5729 5731 5732 5733 5735 5737 5739 5740 5741 5742 5742 5744 5745 5746 5746 5746 5746 5746 5746 5746 5746 5745 5744 5743 5743 5744 5744 5744 5744 5743 5742 5743 5744 5745 5745 5744 5742 5739 5738 5739 5736 5733 5735 5734 5730 5730 5730 5729 5729 5729 5727 5725 5723
5627 5633 5636 5639 5643 5648 5653 5656 5658 5662 5665 5668 5670 5673 5677 5680 5682 5683 5685 5687 5689 5691 5694 5696 5699 5701 5704 5707 5710 5713 5717 5719 5722 5725 5726 5727 5728 5730 5732 5734 5735 5735 5736 5737 5739 5739 5739 5740 5740 5740 5740 5740 5740 5739 5739 5739 5739 5740 5738 5739 5740 5739 5737 5737 5739 5740 5739 5738 5738 5735 5733 5734 5732 5728 5728 5728 5725 5724 5724 5722 5722 5723 5722 5721 5719
5621 5627 5631 5635 5638 5642 5647 5651 5655 5658 5660 5662 5665 5669 5672 5675 5676 5677 5679 5681 5684 5687 5690 5693 5695 5696 5699 5701 5703 5705 5708 5711 5715 5718 5719 5719 5720 5723 5725 5726 5727 5728 5729 5732 5733 5733 5733 5733 5734 5734 5734 5734 5734 5733 5734 5735 5736 5736 5734 5734 5736 5733 5730 5731 5733 5733 5732 5732 5733 5730 5727 5729 5728 5723 5722 5722 5721 5720 5719 5716 5715 5715 5715 5714 5713
5615 5620 5625 5630 5632 5637 5642 5646 5649 5652 5654 5657 5660 5663 5666 5669 5670 5672 5675 5678 5680 5682 5686 5689 5690 5692 5694 5696 5697 5699 5701 5704 5706 5709 5711 5711 5712 5715 5717 5718 5718 5719 5722 5725 5727 5727 5726 5726 5727 5727 5727 5728 5728 5728 5729 5731 5732 5732 5729 5730 5731 5727 5725 5726 5727 5726 5725 5726 5728 5724 5720 5723 5723 5719 5716 5716 5715 5715 5714 5710 5709 5709 5709 5708 5707
5610 5614 5620 5624 5626 5630 5636 5640 5643 5645 5647 5651 5654 5657 5659 5662 5664 5668 5672 5674 5675 5677 5679 5682 5684 5686 5689 5691 5694 5696 5697 5699 5700 5701 5701 5702 5704 5707 5709 5709 5709 5712 5716 5719 5720 5719 5718 5718 5718 5719 5721 5723 5724 5724 5726 5727 5726 5726 5725 5724 5724 5722 5720 5721 5721 5719 5718 5722 5723 5718 5714 5716 5716 5714 5712 5710 5709 5710 5710 5706 5704 5704 5703 5703 5701